Location: East Arcadia
(34.1056°N, 118.0176°W)
Time: 11:08:00
(UTC+00:00)

DELTA 2 R/B (1) - Pass Details

Date: 10 December 2023
Orbit: 788 x 802 km, 39.6° (Epoch: 21 February)

Event Time Altitude Azimuth Distance (km) Brightness Sun altitude
Rises 01:24:10 0° 237° (WSW) 3,292 8.8 -8.6°
Reaches altitude 10° 01:26:39 10° 235° (SW) 2,362 7.5 -9.1°
Maximum altitude 01:32:12 69° 153° (SSE) 850 3.7 -10.2°
Enters shadow 01:36:54 15° 72° (ENE) 2,057 5.0 -11.1°
